Regional Weather Roundup
Issued by NWS

Home | Current Version | Previous Version | Text Only | Print | Product List | Glossary On
Versions: 1 2 3 4 5 6 7 8 9 10 11 12 13 14 15 16 17 18 19 20 21 22 23 24 25 26 27 28 29 30 31 32 33 34 35 36 37 38 39 40 41 42 43 44 45 46 47 48 49 50
000
ASUS46 KSEW 301110
RWRWA

WASHINGTON REGIONAL WEATHER ROUNDUP
NATIONAL WEATHER SERVICE SEATTLE WA
400 AM PDT MON MAY 30 2016

NOTE:"FAIR" INDICATES FEW OR NO CLOUDS BELOW 12,000 FEET WITH NO
SIGNIFICANT WEATHER AND/OR OBSTRUCTIONS TO VISIBILITY.

WAZ505-507>509-301200-
SEATTLE, TACOMA, EVERETT, AND VICINITY

CITY           SKY/WX    TMP DP  RH WIND       PRES   REMARKS
EVERETT        CLEAR     49  40  71 NE6       30.29S
BOEING FIELD   CLEAR     50  44  80 CALM      30.29R
RENTON         CLEAR     51  46  83 VRB5      30.28R
SEATAC AIRPORT CLEAR     50  42  74 N9        30.28S
JBLM-MCCHORD   CLEAR     41  40  99 S5        30.28R
PUYALLUP       FAIR      41  41 100 CALM      30.28R
BREMERTON      CLEAR     41  41 100 CALM      30.30S
JBLM-FT LEWIS  CLEAR     44  43  99 SE5       30.27R
TACOMA NARROWS CLEAR     48  42  80 NW3       30.28R
$$

WAZ001-503-506-510-514-515-301200-
NORTH INTERIOR

CITY           SKY/WX    TMP DP  RH WIND       PRES   REMARKS
BELLINGHAM     CLEAR     46  44  93 CALM      30.28R
FRIDAY HARBOR  PTCLDY    43  41  93 CALM      30.28S
EASTSOUND      CLEAR     50  45  81 S3        30.26R
PORT ANGELES   CLEAR     48  40  73 W8        30.29S
EDIZ HOOK      FAIR      50  43  77 W10       30.29S
PORT TOWNSEND  FAIR      41  39  93 CALM      30.30R FOG
NAS WHIDBEY    CLEAR     51  48  89 W9        30.32R
ARLINGTON      CLEAR     39  34  81 N5        30.32R
BURLINGTON     CLEAR     45  45 100 CALM      30.30R
$$

WAZ020-022-039-040-504-511-512-301200-
SOUTHWEST INTERIOR

CITY           SKY/WX    TMP DP  RH WIND       PRES   REMARKS
SHELTON        CLEAR     40  38  93 CALM      30.27R
OLYMPIA        CLEAR     38  37  97 CALM      30.29R FOG
CHEHALIS       FAIR      41  41 100 CALM      30.29R FOG
KELSO          CLEAR     45  39  81 NW3       30.31R
VANCOUVER      CLEAR     49  43  80 CALM      30.25R
SCAPPOOSE, OR  CLEAR     50  42  74 N3        30.25R
PORTLAND, OR   CLEAR     51  44  77 N3        30.25S
$$

WAZ021-516-517-301200-
WASHINGTON COAST

CITY           SKY/WX    TMP DP  RH WIND       PRES   REMARKS
FORKS          MOCLDY    43  41  93 CALM      30.30S
HOQUIAM        CLEAR     43  43 100 CALM      30.28S
ASTORIA, OR    CLEAR     43  41  93 SE3       30.28R
$$

WAZ019-023-024-040-518-519-301200-
CASCADE MOUNTAINS AND COLUMBIA GORGE

CITY           SKY/WX    TMP DP  RH WIND       PRES   REMARKS
STAMPEDE PASS  FOG       37  35  92 SW5       30.23R VSB 1/4
TROUTDALE, OR  CLEAR     47  42  83 CALM      30.25R
THE DALLES, OR CLEAR     54  43  66 NW7       30.20R
$$

WAZ026-027-041>044-520-521-301200-
EAST SLOPES

CITY           SKY/WX    TMP DP  RH WIND       PRES   REMARKS
OMAK           CLEAR     42  32  67 CALM      30.21R
WENATCHEE      CLEAR     50  36  58 N12       30.21R
ELLENSBURG     CLEAR     46  31  55 NE5       30.21R
YAKIMA           N/A     44  35  70 W6        30.21R
$$

WAZ028-034-035-301200-
COLUMBIA BASIN

CITY           SKY/WX    TMP DP  RH WIND       PRES   REMARKS
EPHRATA        CLEAR     51  32  48 NE8       30.18R
MOSES LAKE     CLEAR     46  32  58 CALM      30.19R
PASCO          CLEAR     47  39  74 CALM      30.19R
HERMISTON, OR  MOCLDY    47  41  80 S3        30.19R
$$

WAZ036>038-301200-
NORTHEAST WASHINGTON

CITY           SKY/WX    TMP DP  RH WIND       PRES   REMARKS
SPOKANE GEIGER CLEAR     43  35  73 W6        30.14R
SPOKANE FELTS  CLEAR     46  38  73 SW3       30.15R
FAIRCHILD AFB  CLEAR     38  35  87 SW6       30.14R
COEURDALENE,ID CLEAR     43  36  75 CALM      30.12R
DEER PARK      CLEAR     34  32  92 NE3       30.15R
$$

WAZ029>033-301200-
SOUTHEAST WASHINGTON

CITY           SKY/WX    TMP DP  RH WIND       PRES   REMARKS
PULLMAN        CLEAR     47  37  68 W6        30.17R
LEWISTON, ID   PTCLDY    57  37  47 NW10      30.13R
WALLA WALLA    PTCLDY    53  39  59 S5        30.18R
PENDLETON, OR  CLOUDY    51  36  56 SW3       30.19R
$$



USA.gov is the U.S. government's official web portal to all federal, state and local government web resources and services.